Wind_Speed
8 8 7 5 3 4 3 4 5 6 7 7 8 9 9 9 8 8 7 7 7 7 7 7 7 7 6 6 7 7 7 7 7 7 7 7 6 6 6 6 6 5 5 5 5 5 5 5 4
9 7 6 4 3 3 4 4 5 6 8 8 7 8 7 8 8 8 8 7 7 7 7 7 7 7 7 6 6 7 7 7 7 7 7 7 7 6 6 6 6 6 6 6 5 5 5 5 4
9 8 6 4 2 2 3 4 4 6 7 8 8 8 7 7 7 8 8 8 7 7 7 6 7 7 7 7 7 7 7 7 7 8 7 7 7 7 7 6 7 7 7 6 6 6 5 5 4
9 8 6 4 2 2 3 4 4 5 7 7 8 8 9 8 7 8 9 8 7 7 7 6 6 6 7 7 7 7 7 7 7 8 8 8 7 7 7 7 7 7 7 7 6 6 6 5 5
10 8 6 4 2 1 2 3 4 5 6 7 8 9 9 8 7 8 8 7 7 7 7 6 6 6 7 7 7 8 8 8 8 8 8 8 8 8 7 7 7 7 7 7 6 6 6 5 5
11 9 7 4 2 0 2 3 4 6 7 7 7 7 8 7 7 7 7 7 6 6 6 6 6 6 6 7 7 8 8 8 8 9 9 9 8 8 8 7 7 7 7 7 7 7 6 6 5
11 9 7 5 3 3 2 3 4 6 6 7 7 8 8 7 7 7 7 7 6 6 6 6 6 6 7 7 7 8 8 8 8 8 9 8 8 8 8 8 7 7 7 7 7 6 6 6 6
13 11 8 5 3 3 3 3 5 6 6 7 8 8 8 7 6 7 6 7 6 6 6 6 6 7 7 7 8 8 8 9 8 8 8 9 9 8 7 8 8 7 8 8 7 7 7 6 6
14 12 9 6 5 5 4 5 6 7 7 7 8 8 8 8 7 7 6 6 6 6 6 6 7 7 7 8 8 8 8 9 9 9 9 9 9 8 8 7 8 8 8 8 8 7 7 6 6
15 12 10 8 6 6 5 5 7 8 8 8 8 8 8 8 8 8 7 7 7 7 6 6 7 7 7 8 8 8 8 8 9 10 9 9 9 9 8 8 8 8 8 8 8 8 7 7 6
16 14 13 10 9 8 6 6 9 9 8 8 8 8 8 9 9 8 8 7 7 7 7 7 7 7 7 8 9 9 9 9 9 10 10 10 10 9 8 8 8 8 9 9 8 8 8 7 7
17 15 14 12 11 9 7 8 10 9 9 9 9 9 9 9 9 8 8 7 8 8 7 7 8 8 8 9 9 9 9 9 9 10 10 10 10 9 9 8 9 9 9 10 9 8 8 8 7
16 16 14 13 11 10 9 9 10 10 10 10 9 9 8 9 9 8 8 8 8 8 8 7 8 8 8 9 9 9 9 9 9 10 10 10 10 9 8 9 9 9 9 10 9 9 9 8 7
16 17 15 13 11 11 11 11 10 10 11 11 10 10 10 9 9 9 8 8 9 9 9 9 9 8 8 9 9 9 10 10 10 10 9 10 10 10 9 9 9 9 10 10 10 9 8 8 8
18 17 16 13 11 11 11 12 11 10 11 12 11 11 9 9 8 9 8 8 9 9 9 9 9 8 9 10 10 10 10 10 10 10 10 10 11 11 11 10 10 10 10 10 10 10 9 8 9
18 17 16 14 13 12 13 11 10 12 12 12 11 10 9 9 8 9 9 10 10 9 10 9 9 9 9 10 10 10 10 11 11 11 11 10 11 12 12 11 11 11 11 11 11 10 10 9 9
19 17 15 14 14 13 13 12 11 13 13 12 11 11 10 8 8 9 10 11 11 10 10 11 10 10 10 10 10 10 10 11 11 11 11 11 12 13 13 12 12 11 11 12 12 12 11 10 9
18 18 16 15 15 16 15 14 13 13 14 13 12 11 10 9 9 10 10 11 11 11 11 11 11 11 11 11 10 10 11 11 11 11 12 12 13 13 14 13 13 12 12 12 12 11 10 10 10
19 19 18 16 16 17 17 14 12 12 14 14 13 12 12 10 11 11 11 11 12 12 12 12 12 12 12 12 12 11 11 12 12 12 12 12 13 14 14 14 13 13 12 13 12 11 11 11 10
20 19 18 17 17 18 17 15 13 13 14 15 15 14 13 12 11 12 12 12 13 14 13 13 13 13 12 13 13 12 12 13 13 13 13 13 13 14 14 14 14 13 12 11 12 12 11 11 11
19 17 16 16 17 17 18 16 15 15 16 16 16 15 15 14 13 12 12 13 13 13 14 14 14 14 14 14 13 13 13 13 13 13 13 13 13 14 14 14 14 14 13 12 12 12 12 12 12
18 17 17 17 18 18 18 18 15 16 16 16 16 16 16 16 15 14 14 14 15 14 15 15 15 15 15 15 14 14 14 14 14 14 14 13 13 15 15 15 15 14 13 13 12 12 12 12 12
18 18 19 18 19 20 19 20 16 17 18 18 18 18 17 17 16 16 15 15 15 16 16 16 16 16 16 16 15 15 15 15 15 14 14 14 15 16 16 15 15 15 14 13 13 12 13 13 13
19 20 21 21 20 20 19 20 17 17 17 18 19 18 18 18 17 16 15 15 16 17 17 17 17 17 17 16 15 15 15 15 15 15 15 16 16 16 16 16 15 14 14 14 13 14 14 13 13
21 21 22 22 21 20 19 21 18 17 17 18 18 19 18 17 17 17 18 17 17 17 17 17 17 17 17 16 16 15 15 15 16 16 16 16 16 16 16 16 15 15 14 14 14 15 15 14 13
20 21 21 21 21 21 21 22 20 19 19 19 19 18 17 18 18 18 18 18 17 18 18 18 18 18 18 17 18 17 15 16 17 17 17 17 17 17 16 15 15 15 15 15 14 14 14 14 13
21 21 21 21 21 22 22 22 21 21 21 20 19 18 18 19 20 20 20 19 19 18 18 19 19 19 19 18 17 16 16 17 17 18 18 18 17 17 16 16 15 15 15 15 15 14 14 14 14
21 20 21 21 22 23 23 22 23 21 18 19 20 19 20 21 21 20 21 20 19 19 19 19 20 20 19 18 18 17 17 18 18 19 19 18 18 17 17 17 16 16 16 16 15 15 15 15 15
22 22 23 22 23 24 23 22 20 20 19 18 18 19 20 21 21 20 20 19 20 21 21 21 21 21 20 20 20 19 18 19 19 19 19 19 19 19 19 18 18 17 17 17 16 16 16 17 16
24 24 24 24 24 24 25 23 20 20 21 21 20 20 21 21 21 21 21 21 21 22 22 22 22 22 22 22 21 20 19 19 19 19 19 19 19 19 20 20 19 18 19 19 18 17 17 17 16
Wind_Direction
154 152 146 134 121 127 109 76 54 34 22 11 1 353 356 8 10 6 6 8 12 14 13 10 6 6 6 3 359 357 356 352 349 346 346 345 346 345 342 341 341 339 332 328 321 313 309 300 293
162 161 157 143 119 102 78 52 33 19 8 7 2 353 356 7 6 3 2 6 12 12 7 4 3 4 3 359 356 354 354 352 350 345 342 341 341 340 341 343 341 340 336 329 323 319 316 311 301
172 173 170 163 131 68 71 47 11 7 3 359 356 354 359 6 4 3 1 4 11 11 7 2 360 0 1 358 355 354 353 353 350 345 341 340 340 341 338 339 337 335 332 327 325 323 318 315 316
184 188 190 175 139 42 42 22 357 354 356 349 348 350 351 359 6 4 5 3 7 9 8 6 3 359 360 358 354 352 350 349 346 343 341 339 336 336 335 333 332 333 330 327 325 323 322 319 313
193 199 197 185 158 38 22 11 340 345 350 344 341 340 344 2 10 6 5 6 6 5 4 4 3 360 0 359 353 351 349 348 345 342 340 340 338 334 332 334 333 330 329 327 325 324 324 324 321
201 211 209 201 184 102 355 324 321 328 338 343 337 335 344 3 7 4 4 5 4 2 2 1 359 358 359 359 356 352 351 349 345 343 342 339 337 336 332 332 334 331 330 329 327 324 325 323 324
203 207 210 218 230 252 309 302 308 311 325 333 329 329 338 356 0 4 6 0 355 356 357 358 358 360 360 356 356 355 352 349 347 344 343 342 336 333 331 331 333 332 332 327 327 325 323 325 324
212 216 219 217 226 236 262 294 305 304 318 321 317 324 331 343 353 360 1 353 350 353 354 356 355 355 355 354 356 359 356 354 353 350 346 345 337 330 329 329 331 333 337 333 326 325 323 320 319
210 211 217 218 224 232 242 272 287 297 302 308 315 322 326 331 334 338 343 344 346 349 350 354 353 351 351 351 353 355 354 352 352 349 345 342 342 339 334 330 329 332 333 332 331 327 325 322 320
209 207 211 219 233 235 239 265 275 284 294 300 304 310 316 321 331 336 339 339 338 342 342 347 348 348 348 348 348 350 351 349 349 347 344 342 342 339 335 328 326 329 330 328 326 325 327 324 320
216 211 211 219 233 239 239 252 267 278 286 290 298 307 316 323 328 332 334 333 337 336 332 333 334 338 339 342 342 347 348 349 348 346 345 342 340 337 333 331 325 324 325 326 324 321 322 320 314
220 216 217 222 235 237 239 255 263 273 281 289 295 305 310 319 323 329 335 333 332 332 325 323 325 333 336 339 340 343 345 348 349 346 345 343 340 335 325 323 321 321 320 321 322 317 318 311 304
220 217 222 229 239 247 245 254 259 264 271 281 288 298 307 313 318 326 327 330 330 328 321 323 329 332 333 332 336 337 341 348 349 345 343 343 337 332 324 318 318 318 319 316 317 312 311 303 295
217 220 223 232 240 246 249 248 255 261 268 275 281 289 304 309 313 323 322 326 328 326 326 326 323 328 327 328 333 336 337 341 343 341 341 340 338 331 325 319 313 312 315 313 312 308 306 298 291
220 220 225 230 235 240 241 240 249 255 264 272 280 286 296 307 311 318 321 323 325 327 326 326 327 326 326 331 334 333 330 332 335 339 336 334 333 331 328 323 316 310 307 307 307 304 299 292 287
224 223 224 226 229 235 241 241 250 256 261 269 277 283 294 305 310 312 315 320 320 323 326 326 325 322 320 324 327 329 330 332 333 334 331 329 328 328 326 321 316 310 306 304 302 301 294 291 286
226 224 225 227 231 237 243 243 245 256 259 265 273 281 290 301 302 307 313 320 321 320 324 323 318 316 316 318 320 325 327 328 329 330 330 326 324 324 326 323 316 310 304 303 300 297 290 286 287
226 228 230 228 230 236 242 244 249 254 258 263 268 275 284 292 297 297 301 311 316 320 323 321 315 311 312 314 313 317 320 324 325 326 328 328 324 324 325 325 323 315 305 300 302 299 289 285 290
226 227 229 227 227 233 241 246 249 255 260 265 266 273 282 288 293 290 294 301 304 311 315 316 313 309 308 310 309 309 313 317 320 322 322 323 322 322 324 325 322 318 311 304 300 298 293 288 291
222 225 228 228 227 236 240 245 244 245 249 254 257 263 273 280 287 290 298 301 303 300 304 308 309 307 306 304 302 302 305 310 313 316 318 318 320 322 322 324 321 319 316 309 300 295 291 287 286
223 223 225 230 230 238 243 239 238 243 247 248 254 262 271 278 282 286 295 299 301 296 302 302 301 301 302 303 298 298 303 305 308 312 312 313 317 320 322 321 318 315 312 310 306 296 288 287 285
226 231 235 235 236 236 243 244 239 242 246 248 253 259 267 273 277 284 289 293 295 296 296 297 295 296 296 298 297 295 299 301 302 306 307 309 313 317 318 318 314 310 309 308 306 299 292 290 289
231 235 239 238 240 239 242 248 245 247 248 250 255 258 264 268 276 281 285 289 292 294 295 295 292 294 292 292 293 293 296 297 298 302 307 309 312 314 315 316 315 310 306 304 302 297 293 291 291
234 235 237 238 239 240 240 247 247 244 248 250 253 260 267 268 272 278 284 291 291 293 296 295 294 294 291 290 292 294 293 295 297 300 304 307 310 313 314 315 312 307 303 302 300 298 294 291 289
232 234 237 238 239 241 240 246 244 244 247 250 256 262 267 271 270 279 287 289 289 291 295 295 293 293 294 293 293 293 292 293 295 297 300 304 309 313 311 312 310 307 304 301 298 296 294 292 289
235 237 239 240 242 242 241 245 246 245 246 250 255 260 268 272 273 276 282 287 288 289 291 292 292 291 290 290 288 288 289 290 291 295 299 301 305 307 307 308 307 307 306 302 298 295 290 288 287
235 238 241 245 246 248 245 248 248 248 248 254 257 259 266 270 274 276 280 285 284 287 289 290 290 288 290 289 287 290 290 290 292 296 298 299 301 303 303 303 304 305 305 303 300 295 291 287 288
236 238 240 244 248 251 251 251 253 255 258 262 261 263 268 268 271 277 280 283 283 287 288 288 289 288 288 289 288 288 287 288 290 293 294 297 300 301 301 301 302 302 302 302 300 294 290 288 287
235 237 240 244 249 253 255 256 260 259 261 265 264 268 270 268 270 273 275 276 281 283 284 285 286 287 287 287 287 284 287 286 289 290 291 294 298 299 301 299 300 301 300 299 295 292 290 288 289
237 238 241 245 250 256 259 259 260 261 260 263 265 268 269 269 273 279 280 277 278 280 281 283 284 284 286 287 287 286 287 286 287 287 290 293 295 297 300 300 298 297 298 296 292 292 293 291 290
Height
5909 5909 5910 5911 5911 5911 5910 5910 5909 5910 5910 5909 5909 5908 5908 5908 5907 5908 5905 5902 5901 5899 5899 5898 5897 5897 5896 5895 5894 5893 5892 5891 5890 5889 5888 5887 5886 5885 5883 5882 5881 5880 5879 5878 5877 5876 5875 5874 5873
5909 5909 5910 5911 5910 5910 5911 5910 5910 5910 5910 5909 5909 5909 5908 5908 5906 5905 5904 5902 5901 5900 5899 5898 5898 5897 5896 5895 5894 5893 5892 5891 5890 5888 5887 5886 5885 5884 5883 5882 5881 5879 5878 5877 5876 5875 5874 5873 5873
5909 5909 5910 5910 5909 5910 5910 5910 5910 5909 5909 5909 5909 5908 5908 5907 5906 5904 5904 5902 5901 5900 5899 5899 5898 5897 5896 5895 5894 5892 5891 5890 5889 5888 5887 5886 5885 5884 5883 5882 5880 5879 5878 5877 5876 5875 5873 5873 5872
5908 5909 5910 5910 5909 5909 5909 5910 5909 5909 5909 5909 5909 5908 5908 5907 5906 5904 5903 5902 5901 5900 5900 5899 5898 5897 5896 5895 5893 5892 5891 5890 5889 5888 5886 5885 5884 5883 5882 5881 5880 5879 5877 5876 5875 5874 5873 5872 5871
5907 5908 5908 5908 5908 5908 5908 5908 5908 5909 5909 5908 5908 5908 5907 5906 5905 5904 5903 5902 5901 5900 5899 5899 5898 5897 5896 5894 5893 5892 5891 5889 5888 5887 5886 5884 5884 5883 5881 5880 5879 5878 5877 5876 5874 5873 5872 5871 5870
5907 5907 5907 5907 5907 5907 5907 5907 5907 5908 5908 5908 5908 5908 5907 5906 5905 5904 5903 5902 5901 5900 5899 5899 5898 5897 5895 5894 5893 5892 5890 5889 5888 5886 5885 5884 5883 5882 5881 5879 5878 5877 5876 5875 5874 5873 5872 5870 5869
5906 5906 5906 5906 5906 5906 5907 5907 5907 5907 5907 5907 5907 5907 5907 5906 5905 5903 5903 5902 5901 5900 5899 5898 5897 5896 5895 5894 5893 5891 5890 5889 5887 5886 5884 5883 5882 5881 5880 5879 5878 5877 5876 5874 5873 5872 5871 5870 5869
5904 5906 5905 5906 5906 5906 5907 5907 5907 5907 5907 5906 5907 5906 5906 5906 5905 5903 5903 5902 5901 5900 5899 5898 5897 5896 5895 5893 5892 5891 5889 5888 5887 5885 5884 5882 5881 5880 5879 5878 5877 5876 5874 5873 5872 5871 5870 5869 5868
5903 5905 5904 5905 5904 5905 5905 5906 5906 5906 5905 5906 5906 5906 5905 5905 5904 5904 5903 5902 5901 5899 5898 5897 5896 5895 5894 5893 5892 5890 5889 5887 5886 5884 5883 5881 5880 5879 5878 5877 5876 5875 5873 5872 5871 5870 5869 5868 5867
5901 5902 5903 5903 5903 5904 5904 5904 5904 5905 5904 5905 5905 5905 5904 5904 5903 5903 5902 5901 5900 5899 5898 5897 5896 5895 5894 5892 5891 5889 5888 5887 5885 5883 5882 5881 5879 5878 5876 5875 5875 5874 5872 5871 5870 5869 5868 5867 5866
5899 5900 5901 5900 5901 5902 5903 5903 5903 5903 5904 5904 5904 5904 5903 5902 5902 5902 5902 5901 5900 5898 5897 5896 5895 5894 5893 5892 5890 5889 5887 5885 5884 5882 5881 5880 5878 5877 5875 5874 5873 5872 5871 5870 5869 5868 5867 5866 5865
5897 5898 5898 5898 5899 5900 5901 5902 5902 5902 5903 5904 5903 5903 5903 5902 5901 5900 5900 5900 5898 5897 5896 5895 5894 5893 5892 5890 5889 5888 5886 5885 5883 5881 5880 5878 5877 5875 5874 5873 5872 5871 5870 5869 5868 5867 5865 5864 5864
5894 5895 5896 5896 5897 5898 5899 5900 5901 5901 5902 5902 5902 5902 5901 5901 5900 5899 5899 5898 5897 5896 5895 5893 5892 5891 5891 5889 5888 5887 5885 5883 5882 5880 5879 5877 5876 5874 5873 5871 5870 5869 5868 5867 5866 5865 5864 5863 5862
5891 5892 5893 5895 5896 5896 5898 5899 5899 5900 5900 5900 5900 5900 5900 5900 5899 5898 5897 5896 5895 5895 5894 5893 5891 5890 5889 5888 5886 5885 5883 5882 5880 5879 5877 5876 5874 5872 5871 5870 5868 5867 5866 5865 5864 5863 5862 5861 5861
5888 5890 5892 5893 5894 5895 5896 5897 5897 5898 5897 5897 5898 5898 5898 5898 5897 5896 5896 5895 5894 5893 5893 5891 5890 5889 5888 5886 5885 5883 5882 5880 5878 5877 5876 5874 5872 5871 5869 5868 5866 5865 5864 5863 5861 5860 5859 5859 5858
5885 5887 5889 5891 5892 5893 5895 5895 5895 5895 5895 5895 5895 5895 5896 5896 5896 5895 5894 5894 5893 5892 5891 5890 5888 5887 5886 5885 5883 5882 5880 5878 5877 5875 5874 5872 5870 5869 5867 5865 5864 5862 5861 5860 5859 5858 5857 5856 5856
5882 5884 5886 5888 5889 5890 5891 5892 5892 5892 5892 5893 5893 5893 5894 5894 5894 5894 5893 5892 5891 5890 5889 5888 5886 5885 5884 5883 5881 5880 5878 5877 5875 5873 5872 5870 5869 5867 5865 5863 5861 5860 5859 5857 5857 5856 5855 5854 5853
5880 5881 5883 5884 5885 5886 5887 5888 5889 5889 5889 5891 5891 5891 5891 5892 5892 5892 5891 5890 5889 5888 5887 5886 5885 5883 5882 5881 5879 5878 5876 5875 5873 5872 5870 5868 5866 5865 5863 5861 5859 5857 5856 5855 5854 5853 5852 5851 5851
5876 5877 5879 5880 5881 5882 5883 5885 5886 5887 5887 5888 5889 5889 5889 5890 5890 5889 5889 5888 5887 5886 5885 5884 5883 5881 5880 5878 5877 5876 5874 5873 5871 5869 5868 5866 5864 5862 5860 5858 5857 5854 5853 5852 5851 5850 5849 5848 5848
5872 5873 5874 5876 5877 5878 5879 5881 5883 5883 5884 5884 5885 5886 5886 5887 5887 5887 5886 5886 5884 5883 5883 5881 5880 5879 5877 5876 5875 5873 5872 5870 5869 5867 5866 5864 5862 5860 5858 5856 5854 5852 5850 5849 5848 5846 5846 5845 5845
5868 5870 5871 5873 5874 5875 5876 5878 5879 5880 5880 5880 5882 5882 5883 5884 5884 5884 5884 5883 5882 5880 5879 5878 5877 5876 5875 5874 5872 5871 5870 5868 5866 5865 5863 5861 5859 5857 5855 5853 5851 5849 5847 5846 5844 5843 5842 5842 5841
5864 5867 5868 5869 5869 5871 5873 5874 5876 5877 5877 5877 5878 5878 5879 5880 5880 5880 5880 5880 5879 5877 5876 5875 5874 5873 5872 5870 5869 5868 5867 5865 5864 5862 5861 5859 5857 5855 5852 5850 5848 5846 5844 5842 5841 5839 5838 5838 5837
5861 5863 5864 5865 5865 5867 5869 5870 5873 5873 5873 5874 5874 5874 5875 5876 5876 5876 5876 5875 5875 5874 5873 5872 5871 5869 5868 5866 5865 5864 5863 5862 5861 5859 5858 5856 5854 5852 5849 5847 5845 5843 5841 5839 5838 5836 5835 5834 5833
5857 5858 5859 5860 5861 5863 5865 5865 5867 5868 5869 5869 5870 5871 5871 5871 5871 5870 5871 5871 5871 5870 5869 5868 5867 5865 5863 5862 5861 5860 5859 5858 5857 5856 5854 5852 5850 5848 5846 5844 5842 5840 5838 5836 5834 5833 5831 5830 5829
5852 5854 5855 5856 5857 5858 5860 5860 5862 5863 5864 5865 5866 5867 5867 5867 5867 5867 5867 5867 5867 5867 5865 5864 5862 5861 5860 5858 5857 5856 5855 5854 5854 5852 5851 5849 5846 5844 5842 5840 5838 5836 5834 5832 5831 5829 5827 5826 5825
5847 5849 5851 5852 5853 5854 5855 5855 5858 5859 5859 5860 5861 5862 5863 5863 5863 5863 5863 5863 5863 5862 5861 5859 5858 5857 5855 5854 5852 5851 5851 5850 5849 5848 5846 5845 5843 5841 5839 5837 5835 5833 5830 5828 5827 5825 5823 5822 5821
5842 5844 5846 5847 5848 5849 5850 5852 5853 5854 5854 5855 5856 5857 5858 5859 5859 5858 5858 5858 5858 5857 5856 5855 5854 5853 5851 5850 5848 5847 5846 5846 5845 5843 5842 5840 5839 5837 5835 5833 5831 5829 5826 5824 5822 5820 5819 5818 5817
5838 5840 5841 5841 5842 5843 5845 5846 5848 5848 5849 5850 5851 5851 5853 5854 5854 5854 5854 5853 5853 5852 5851 5850 5849 5848 5847 5846 5844 5843 5842 5841 5840 5839 5838 5836 5834 5833 5831 5829 5827 5824 5822 5820 5818 5817 5815 5814 5813
5833 5835 5835 5837 5837 5838 5839 5843 5844 5844 5845 5846 5847 5847 5847 5848 5848 5848 5848 5848 5848 5847 5846 5845 5844 5843 5842 5841 5838 5837 5837 5836 5835 5834 5833 5832 5830 5828 5826 5824 5822 5820 5817 5815 5813 5812 5811 5809 5808
5828 5829 5830 5832 5832 5833 5834 5839 5838 5838 5839 5840 5842 5842 5842 5842 5842 5842 5842 5842 5841 5841 5840 5840 5839 5838 5837 5836 5834 5832 5832 5831 5830 5829 5828 5827 5825 5823 5821 5819 5817 5815 5813 5810 5809 5807 5806 5804 5803